Weather in Kurortne

Ukraine / Odesa District     45°56′31″N   30°17′55″E
temp.,
°C
wind,
m/s
gust,
m/s
humid.,
%
clouds,
%
prec.,
mm/h
press.,
hPa
HPBL,
m
22 april, thu
thu2200:00+9ssw33895 0.0 101842
03:00+9sw22835 0.0 101917
06:00+8s33905 0.0 101935
09:00+13s45715 0.0 1020343
12:00+15s56570 0.0 1020684
15:00+16s77573 0.0 1020628
18:00+13s8126695 0.1 1019336
21:00+12ssw6137424 0.1 1020340
23 april, fri
fri2300:00+11ssw7147935 0.0 1019315
03:00+10ssw6128887 0.0 1018264
06:00+10ssw6119199 0.1 1017274
09:00+12ssw5780100 0.3 1018289
12:00+15ssw6767100 0.2 1017629
15:00+12nnw5785100 3.6 1017507
18:00+11wnw3582100 0.4 1017489
21:00+8n698979 2.8 1019372
24 april, sat
sat2400:00+6nnw48922 0.0 1020264
03:00+5nw35910 0.0 102196
06:00+5nw35860 0.0 102172
09:00+10nw45590 0.0 1022501
12:00+13nw6646100 0.0 10222009
15:00+12nw575211 0.0 10231345
18:00+12nnw563977 0.0 10231906
21:00+8n224699 0.0 102416
25 april, sun
sun2500:00+6nnw114732 0.0 102416
03:00+6nw004840 0.0 102413
06:00+5wsw115518 0.0 102314
09:00+11s33525 0.0 1023586
12:00+13s553922 0.0 10221100
15:00+12s56435 0.0 1021931
18:00+11s6650100 0.0 1020594
21:00+8ssw476978 0.0 1020175
26 april, mon
mon2600:00+8sw3682100 1.6 1021327
03:00+7w4892100 4.4 1020315
06:00+6n4983100 0.7 1021347
09:00+9n56535 0.8 1022819
12:00+12nnw35395 0.0 10221581
15:00+14sw2537100 0.0 10202278
18:00+11s555190 0.0 1020646
21:00+8ssw586799 0.0 1020214